contact:dominique.lefevre@mio.osupytheas.fr, maurice.libes@osupytheas.fr, didier.mallarino@osupytheas.fr
Project:EMSO http://www.emso-fr.org/EMSO-France
Depth: 2436.0 m
Title:EMSO Ligure Ouest : Data MII capteur CSTAR
DateTime,Latitude,Longitude,Instrument_Serial,Reference_Counts,Signal_Counts,Corrected_Signal_raw_counts,Calculated_Beam_c_inverse_meters,Internal_thermistor_counts
DateTime,Latitude,Longitude,Instrument_Serial,Reference_Counts,Signal_Counts,Corrected_Signal_raw_counts,Calculated_Beam_c_inverse_meters,Internal_thermistor_counts
2021-01-06T00:01:10,42.805,6.029,CST-1368DR,5639,7887,15038,0.151,551
2021-01-06T00:04:12,42.805,6.029,CST-1368DR,5638,7887,15041,0.150,551
2021-01-06T00:07:13,42.805,6.029,CST-1368DR,5638,7887,15041,0.150,551
2021-01-06T00:10:15,42.805,6.029,CST-1368DR,5638,7887,15042,0.150,551
2021-01-06T00:13:17,42.805,6.029,CST-1368DR,5638,7887,15042,0.150,551
2021-01-06T00:16:18,42.805,6.029,CST-1368DR,5638,7887,15042,0.150,551
2021-01-06T00:19:20,42.805,6.029,CST-1368DR,5639,7888,15040,0.150,551
2021-01-06T00:22:21,42.805,6.029,CST-1368DR,5639,7888,15041,0.150,551
2021-01-06T00:25:23,42.805,6.029,CST-1368DR,5638,7887,15042,0.150,551
2021-01-06T00:28:24,42.805,6.029,CST-1368DR,5638,7886,15040,0.150,551
2021-01-06T00:31:26,42.805,6.029,CST-1368DR,5638,7886,15040,0.150,551
2021-01-06T00:34:28,42.805,6.029,CST-1368DR,5638,7888,15043,0.150,550
2021-01-06T00:37:29,42.805,6.029,CST-1368DR,5638,7887,15041,0.150,551
2021-01-06T00:40:31,42.805,6.029,CST-1368DR,5638,7887,15042,0.150,551
2021-01-06T00:43:32,42.805,6.029,CST-1368DR,5638,7887,15042,0.150,551
2021-01-06T00:46:34,42.805,6.029,CST-1368DR,5638,7888,15044,0.149,551
2021-01-06T00:49:36,42.805,6.029,CST-1368DR,5638,7887,15042,0.150,551
2021-01-06T00:52:37,42.805,6.029,CST-1368DR,5638,7888,15044,0.149,551
2021-01-06T00:55:39,42.805,6.029,CST-1368DR,5638,7887,15042,0.150,551
2021-01-06T00:58:40,42.805,6.029,CST-1368DR,5638,7886,15040,0.150,551
2021-01-06T01:01:42,42.805,6.029,CST-1368DR,5638,7887,15042,0.150,550
2021-01-06T01:04:43,42.805,6.029,CST-1368DR,5638,7886,15040,0.150,550
2021-01-06T01:07:45,42.805,6.029,CST-1368DR,5638,7884,15036,0.151,551
2021-01-06T01:10:47,42.805,6.029,CST-1368DR,5638,7884,15036,0.151,551
2021-01-06T01:13:48,42.805,6.029,CST-1368DR,5638,7885,15038,0.151,551
2021-01-06T01:16:50,42.805,6.029,CST-1368DR,5638,7888,15043,0.150,551
2021-01-06T01:19:51,42.805,6.029,CST-1368DR,5638,7888,15043,0.150,551
2021-01-06T01:22:53,42.805,6.029,CST-1368DR,5638,7887,15042,0.150,551
2021-01-06T01:25:54,42.805,6.029,CST-1368DR,5638,7886,15039,0.151,551
2021-01-06T01:28:56,42.805,6.029,CST-1368DR,5638,7888,15043,0.150,551
2021-01-06T01:31:58,42.805,6.029,CST-1368DR,5638,7888,15043,0.150,551
2021-01-06T01:34:59,42.805,6.029,CST-1368DR,5638,7888,15043,0.150,551
2021-01-06T01:38:01,42.805,6.029,CST-1368DR,5638,7888,15044,0.149,551
2021-01-06T01:41:02,42.805,6.029,CST-1368DR,5638,7882,15032,0.152,551
2021-01-06T01:44:04,42.805,6.029,CST-1368DR,5638,7888,15044,0.149,551
2021-01-06T01:47:06,42.805,6.029,CST-1368DR,5638,7888,15044,0.149,551
2021-01-06T01:50:07,42.805,6.029,CST-1368DR,5638,7888,15043,0.150,551
2021-01-06T01:53:09,42.805,6.029,CST-1368DR,5638,7888,15043,0.150,551
2021-01-06T01:56:10,42.805,6.029,CST-1368DR,5638,7887,15042,0.150,551
2021-01-06T01:59:12,42.805,6.029,CST-1368DR,5638,7887,15042,0.150,551
2021-01-06T02:02:13,42.805,6.029,CST-1368DR,5638,7888,15043,0.150,551
2021-01-06T02:05:15,42.805,6.029,CST-1368DR,5638,7887,15041,0.150,551
2021-01-06T02:08:17,42.805,6.029,CST-1368DR,5638,7888,15044,0.149,551
2021-01-06T02:11:18,42.805,6.029,CST-1368DR,5638,7886,15040,0.150,551
2021-01-06T02:14:20,42.805,6.029,CST-1368DR,5638,7888,15044,0.149,551
2021-01-06T02:17:21,42.805,6.029,CST-1368DR,5638,7888,15044,0.149,551
2021-01-06T02:20:23,42.805,6.029,CST-1368DR,5638,7887,15041,0.150,551
2021-01-06T02:23:25,42.805,6.029,CST-1368DR,5638,7888,15043,0.150,551
2021-01-06T02:26:26,42.805,6.029,CST-1368DR,5638,7888,15044,0.149,551
2021-01-06T02:29:28,42.805,6.029,CST-1368DR,5638,7887,15042,0.150,551
2021-01-06T02:32:29,42.805,6.029,CST-1368DR,5638,7888,15043,0.150,551
2021-01-06T02:35:31,42.805,6.029,CST-1368DR,5638,7887,15042,0.150,551
2021-01-06T02:38:32,42.805,6.029,CST-1368DR,5638,7888,15043,0.150,551
2021-01-06T02:41:34,42.805,6.029,CST-1368DR,5638,7888,15044,0.149,551
2021-01-06T02:44:36,42.805,6.029,CST-1368DR,5638,7888,15043,0.150,551
2021-01-06T02:47:37,42.805,6.029,CST-1368DR,5638,7888,15044,0.149,551
2021-01-06T02:50:39,42.805,6.029,CST-1368DR,5638,7888,15043,0.150,551
2021-01-06T02:53:40,42.805,6.029,CST-1368DR,5638,7887,15042,0.150,551
2021-01-06T02:56:42,42.805,6.029,CST-1368DR,5638,7888,15043,0.150,551
2021-01-06T02:59:44,42.805,6.029,CST-1368DR,5638,7887,15042,0.150,551
2021-01-06T03:02:45,42.805,6.029,CST-1368DR,5638,7886,15040,0.150,551
2021-01-06T03:05:47,42.805,6.029,CST-1368DR,5638,7887,15041,0.150,551
2021-01-06T03:08:48,42.805,6.029,CST-1368DR,5638,7886,15039,0.151,551
2021-01-06T03:11:50,42.805,6.029,CST-1368DR,5638,7887,15042,0.150,551
2021-01-06T03:14:51,42.805,6.029,CST-1368DR,5638,7887,15042,0.150,551
2021-01-06T03:17:53,42.805,6.029,CST-1368DR,5638,7888,15043,0.150,551
2021-01-06T03:20:55,42.805,6.029,CST-1368DR,5638,7887,15042,0.150,551
2021-01-06T03:23:56,42.805,6.029,CST-1368DR,5638,7888,15044,0.149,551
2021-01-06T03:26:58,42.805,6.029,CST-1368DR,5638,7886,15040,0.150,551
2021-01-06T03:29:59,42.805,6.029,CST-1368DR,5638,7887,15042,0.150,551
2021-01-06T03:33:01,42.805,6.029,CST-1368DR,5638,7887,15042,0.150,551
2021-01-06T03:36:02,42.805,6.029,CST-1368DR,5638,7887,15041,0.150,551
2021-01-06T03:39:04,42.805,6.029,CST-1368DR,5638,7888,15043,0.150,551
2021-01-06T03:42:06,42.805,6.029,CST-1368DR,5638,7888,15043,0.150,551
2021-01-06T03:45:07,42.805,6.029,CST-1368DR,5638,7886,15040,0.150,550
2021-01-06T03:48:09,42.805,6.029,CST-1368DR,5638,7888,15043,0.150,551
2021-01-06T03:51:10,42.805,6.029,CST-1368DR,5638,7887,15041,0.150,551
2021-01-06T03:54:12,42.805,6.029,CST-1368DR,5638,7886,15040,0.150,551
2021-01-06T03:57:14,42.805,6.029,CST-1368DR,5638,7887,15041,0.150,551
2021-01-06T04:00:15,42.805,6.029,CST-1368DR,5638,7888,15043,0.150,551
2021-01-06T04:03:17,42.805,6.029,CST-1368DR,5638,7887,15042,0.150,551
2021-01-06T04:06:18,42.805,6.029,CST-1368DR,5638,7887,15042,0.150,551
2021-01-06T04:09:20,42.805,6.029,CST-1368DR,5638,7888,15044,0.149,551
2021-01-06T04:12:21,42.805,6.029,CST-1368DR,5638,7887,15042,0.150,551
2021-01-06T04:15:23,42.805,6.029,CST-1368DR,5638,7887,15042,0.150,551
2021-01-06T04:18:25,42.805,6.029,CST-1368DR,5638,7888,15043,0.150,551
2021-01-06T04:21:26,42.805,6.029,CST-1368DR,5638,7887,15042,0.150,551
2021-01-06T04:24:28,42.805,6.029,CST-1368DR,5638,7888,15043,0.150,551
2021-01-06T04:27:29,42.805,6.029,CST-1368DR,5638,7887,15041,0.150,551
2021-01-06T04:30:31,42.805,6.029,CST-1368DR,5638,7888,15043,0.150,551
2021-01-06T04:33:33,42.805,6.029,CST-1368DR,5638,7887,15042,0.150,551
2021-01-06T04:36:34,42.805,6.029,CST-1368DR,5638,7887,15042,0.150,551
2021-01-06T04:39:36,42.805,6.029,CST-1368DR,5638,7888,15043,0.150,551
2021-01-06T04:42:37,42.805,6.029,CST-1368DR,5638,7887,15042,0.150,551
2021-01-06T04:45:39,42.805,6.029,CST-1368DR,5638,7887,15042,0.150,551
2021-01-06T04:48:40,42.805,6.029,CST-1368DR,5638,7886,15040,0.150,551
2021-01-06T04:51:42,42.805,6.029,CST-1368DR,5638,7887,15042,0.150,551
2021-01-06T04:54:44,42.805,6.029,CST-1368DR,5638,7887,15042,0.150,551
2021-01-06T04:57:45,42.805,6.029,CST-1368DR,5638,7886,15040,0.150,551
2021-01-06T05:00:47,42.805,6.029,CST-1368DR,5638,7886,15040,0.150,551
2021-01-06T05:03:48,42.805,6.029,CST-1368DR,5638,7885,15038,0.151,551
2021-01-06T05:06:50,42.805,6.029,CST-1368DR,5638,7887,15041,0.150,551
2021-01-06T05:09:51,42.805,6.029,CST-1368DR,5638,7886,15039,0.151,551
2021-01-06T05:12:53,42.805,6.029,CST-1368DR,5638,7886,15040,0.150,551
2021-01-06T05:15:55,42.805,6.029,CST-1368DR,5638,7884,15035,0.152,551
2021-01-06T05:18:56,42.805,6.029,CST-1368DR,5638,7885,15037,0.151,551
2021-01-06T05:21:58,42.805,6.029,CST-1368DR,5638,7886,15039,0.151,551
2021-01-06T05:24:59,42.805,6.029,CST-1368DR,5638,7887,15042,0.150,551
2021-01-06T05:28:01,42.805,6.029,CST-1368DR,5638,7888,15043,0.150,551
2021-01-06T05:31:03,42.805,6.029,CST-1368DR,5638,7886,15040,0.150,551
2021-01-06T05:34:04,42.805,6.029,CST-1368DR,5638,7886,15040,0.150,551
2021-01-06T05:37:06,42.805,6.029,CST-1368DR,5638,7886,15039,0.151,551
2021-01-06T05:40:07,42.805,6.029,CST-1368DR,5638,7886,15039,0.151,551
2021-01-06T05:43:09,42.805,6.029,CST-1368DR,5638,7886,15039,0.151,551
2021-01-06T05:46:10,42.805,6.029,CST-1368DR,5638,7885,15038,0.151,551
2021-01-06T05:49:12,42.805,6.029,CST-1368DR,5638,7886,15039,0.151,551
2021-01-06T05:52:14,42.805,6.029,CST-1368DR,5638,7885,15037,0.151,551
2021-01-06T05:55:15,42.805,6.029,CST-1368DR,5638,7885,15038,0.151,551
2021-01-06T05:58:17,42.805,6.029,CST-1368DR,5638,7885,15038,0.151,551
2021-01-06T06:01:18,42.805,6.029,CST-1368DR,5638,7886,15040,0.150,551
2021-01-06T06:04:20,42.805,6.029,CST-1368DR,5638,7884,15036,0.151,551
2021-01-06T06:07:22,42.805,6.029,CST-1368DR,5638,7885,15037,0.151,551
2021-01-06T06:10:23,42.805,6.029,CST-1368DR,5638,7885,15038,0.151,551
2021-01-06T06:13:25,42.805,6.029,CST-1368DR,5638,7886,15039,0.151,551
2021-01-06T06:16:26,42.805,6.029,CST-1368DR,5638,7884,15036,0.151,551
2021-01-06T06:19:28,42.805,6.029,CST-1368DR,5638,7885,15038,0.151,551
2021-01-06T06:22:29,42.805,6.029,CST-1368DR,5638,7885,15038,0.151,551
2021-01-06T06:25:31,42.805,6.029,CST-1368DR,5638,7879,15026,0.154,551
2021-01-06T06:28:33,42.805,6.029,CST-1368DR,5638,7886,15040,0.150,551
2021-01-06T06:31:34,42.805,6.029,CST-1368DR,5638,7886,15040,0.150,551
2021-01-06T06:34:36,42.805,6.029,CST-1368DR,5638,7886,15040,0.150,551
2021-01-06T06:37:37,42.805,6.029,CST-1368DR,5638,7885,15038,0.151,551
2021-01-06T06:40:39,42.805,6.029,CST-1368DR,5638,7885,15038,0.151,551
2021-01-06T06:43:41,42.805,6.029,CST-1368DR,5638,7884,15036,0.151,551
2021-01-06T06:46:42,42.805,6.029,CST-1368DR,5638,7884,15035,0.152,551
2021-01-06T06:49:44,42.805,6.029,CST-1368DR,5638,7885,15038,0.151,551
2021-01-06T06:52:45,42.805,6.029,CST-1368DR,5638,7883,15034,0.152,551
2021-01-06T06:55:47,42.805,6.029,CST-1368DR,5638,7885,15037,0.151,551
2021-01-06T06:58:48,42.805,6.029,CST-1368DR,5638,7886,15040,0.150,551
2021-01-06T07:01:50,42.805,6.029,CST-1368DR,5638,7884,15036,0.151,551
2021-01-06T07:04:52,42.805,6.029,CST-1368DR,5638,7885,15038,0.151,551
2021-01-06T07:07:53,42.805,6.029,CST-1368DR,5638,7885,15037,0.151,551
2021-01-06T07:10:55,42.805,6.029,CST-1368DR,5638,7884,15035,0.152,551
2021-01-06T07:13:56,42.805,6.029,CST-1368DR,5638,7884,15036,0.151,551
2021-01-06T07:16:58,42.805,6.029,CST-1368DR,5638,7884,15036,0.151,551
2021-01-06T07:19:59,42.805,6.029,CST-1368DR,5638,7886,15039,0.151,551
2021-01-06T07:23:01,42.805,6.029,CST-1368DR,5638,7886,15039,0.151,551
2021-01-06T07:26:03,42.805,6.029,CST-1368DR,5638,7886,15039,0.151,551
2021-01-06T07:29:04,42.805,6.029,CST-1368DR,5638,7886,15039,0.151,551
2021-01-06T07:32:06,42.805,6.029,CST-1368DR,5638,7885,15038,0.151,551
2021-01-06T07:35:07,42.805,6.029,CST-1368DR,5638,7885,15037,0.151,551
2021-01-06T07:38:09,42.805,6.029,CST-1368DR,5638,7886,15039,0.151,551
2021-01-06T07:41:11,42.805,6.029,CST-1368DR,5637,7885,15040,0.150,551
2021-01-06T07:44:12,42.805,6.029,CST-1368DR,5638,7886,15039,0.151,551
2021-01-06T07:47:14,42.805,6.029,CST-1368DR,5637,7885,15041,0.150,551
2021-01-06T07:50:15,42.805,6.029,CST-1368DR,5638,7886,15039,0.151,551
2021-01-06T07:53:17,42.805,6.029,CST-1368DR,5638,7884,15036,0.151,551
2021-01-06T07:56:18,42.805,6.029,CST-1368DR,5637,7886,15042,0.150,551
2021-01-06T07:59:20,42.805,6.029,CST-1368DR,5637,7886,15042,0.150,551
2021-01-06T08:02:22,42.805,6.029,CST-1368DR,5637,7887,15044,0.149,551
2021-01-06T08:05:23,42.805,6.029,CST-1368DR,5637,7886,15041,0.150,551
2021-01-06T08:08:25,42.805,6.029,CST-1368DR,5638,7886,15039,0.151,551
2021-01-06T08:11:26,42.805,6.029,CST-1368DR,5638,7885,15038,0.151,551
2021-01-06T08:14:28,42.805,6.029,CST-1368DR,5637,7885,15041,0.150,551
2021-01-06T08:17:30,42.805,6.029,CST-1368DR,5638,7885,15037,0.151,551
2021-01-06T08:20:31,42.805,6.029,CST-1368DR,5637,7886,15043,0.150,551
2021-01-06T08:23:33,42.805,6.029,CST-1368DR,5637,7886,15043,0.150,551
2021-01-06T08:26:34,42.805,6.029,CST-1368DR,5638,7886,15040,0.150,551
2021-01-06T08:29:36,42.805,6.029,CST-1368DR,5637,7887,15043,0.150,551
2021-01-06T08:32:37,42.805,6.029,CST-1368DR,5638,7887,15041,0.150,551
2021-01-06T08:35:39,42.805,6.029,CST-1368DR,5638,7886,15039,0.151,551
2021-01-06T08:38:41,42.805,6.029,CST-1368DR,5637,7886,15042,0.150,551
2021-01-06T08:41:42,42.805,6.029,CST-1368DR,5637,7885,15040,0.150,551
2021-01-06T08:44:44,42.805,6.029,CST-1368DR,5637,7887,15043,0.150,551
2021-01-06T08:47:45,42.805,6.029,CST-1368DR,5637,7887,15043,0.150,551
2021-01-06T08:50:47,42.805,6.029,CST-1368DR,5637,7887,15043,0.150,551
2021-01-06T08:53:48,42.805,6.029,CST-1368DR,5637,7887,15043,0.150,551
2021-01-06T08:56:50,42.805,6.029,CST-1368DR,5637,7886,15042,0.150,551
2021-01-06T08:59:52,42.805,6.029,CST-1368DR,5637,7887,15043,0.150,551
2021-01-06T09:02:53,42.805,6.029,CST-1368DR,5637,7885,15041,0.150,551
2021-01-06T09:05:55,42.805,6.029,CST-1368DR,5637,7885,15040,0.150,551
2021-01-06T09:08:56,42.805,6.029,CST-1368DR,5637,7886,15043,0.150,551
2021-01-06T09:11:58,42.805,6.029,CST-1368DR,5637,7886,15043,0.150,551
2021-01-06T09:15:00,42.805,6.029,CST-1368DR,5637,7886,15041,0.150,551
2021-01-06T09:18:01,42.805,6.029,CST-1368DR,5637,7887,15043,0.150,551
2021-01-06T09:21:03,42.805,6.029,CST-1368DR,5637,7887,15044,0.149,550
2021-01-06T09:24:04,42.805,6.029,CST-1368DR,5637,7887,15043,0.150,551
2021-01-06T09:27:06,42.805,6.029,CST-1368DR,5637,7884,15039,0.151,551
2021-01-06T09:30:07,42.805,6.029,CST-1368DR,5637,7886,15043,0.150,551
2021-01-06T09:33:09,42.805,6.029,CST-1368DR,5637,7887,15044,0.149,551
2021-01-06T09:36:11,42.805,6.029,CST-1368DR,5637,7887,15044,0.149,551
2021-01-06T09:39:12,42.805,6.029,CST-1368DR,5637,7886,15042,0.150,551
2021-01-06T09:42:14,42.805,6.029,CST-1368DR,5637,7887,15044,0.149,551
2021-01-06T09:45:15,42.805,6.029,CST-1368DR,5637,7887,15044,0.149,551
2021-01-06T09:48:17,42.805,6.029,CST-1368DR,5637,7887,15043,0.150,551
2021-01-06T09:51:19,42.805,6.029,CST-1368DR,5637,7887,15045,0.149,551
2021-01-06T09:54:20,42.805,6.029,CST-1368DR,5637,7886,15042,0.150,551
2021-01-06T09:57:22,42.805,6.029,CST-1368DR,5637,7887,15043,0.150,551
2021-01-06T10:00:23,42.805,6.029,CST-1368DR,5637,7884,15038,0.151,551
2021-01-06T10:03:25,42.805,6.029,CST-1368DR,5637,7886,15042,0.150,551
2021-01-06T10:06:26,42.805,6.029,CST-1368DR,5637,7886,15042,0.150,551
2021-01-06T10:09:28,42.805,6.029,CST-1368DR,5637,7886,15042,0.150,551
2021-01-06T10:12:30,42.805,6.029,CST-1368DR,5637,7885,15041,0.150,551
2021-01-06T10:15:31,42.805,6.029,CST-1368DR,5637,7885,15040,0.150,551
2021-01-06T10:18:33,42.805,6.029,CST-1368DR,5637,7885,15041,0.150,551
2021-01-06T10:21:34,42.805,6.029,CST-1368DR,5637,7886,15041,0.150,551
2021-01-06T10:24:36,42.805,6.029,CST-1368DR,5637,7886,15043,0.150,551
2021-01-06T10:27:37,42.805,6.029,CST-1368DR,5637,7886,15042,0.150,551
2021-01-06T10:30:39,42.805,6.029,CST-1368DR,5637,7885,15041,0.150,551
2021-01-06T10:33:41,42.805,6.029,CST-1368DR,5637,7886,15041,0.150,551
2021-01-06T10:36:42,42.805,6.029,CST-1368DR,5637,7886,15043,0.150,551
2021-01-06T10:39:44,42.805,6.029,CST-1368DR,5637,7885,15040,0.150,551
2021-01-06T10:42:45,42.805,6.029,CST-1368DR,5637,7886,15042,0.150,551
2021-01-06T10:45:47,42.805,6.029,CST-1368DR,5637,7886,15043,0.150,551
2021-01-06T10:48:49,42.805,6.029,CST-1368DR,5637,7886,15042,0.150,551
2021-01-06T10:51:50,42.805,6.029,CST-1368DR,5637,7881,15033,0.152,551
2021-01-06T10:54:52,42.805,6.029,CST-1368DR,5637,7886,15042,0.150,551
2021-01-06T10:57:53,42.805,6.029,CST-1368DR,5637,7887,15043,0.150,551
2021-01-06T11:00:55,42.805,6.029,CST-1368DR,5637,7886,15042,0.150,551
2021-01-06T11:03:56,42.805,6.029,CST-1368DR,5637,7885,15041,0.150,551
2021-01-06T11:06:58,42.805,6.029,CST-1368DR,5637,7886,15042,0.150,551
2021-01-06T11:10:00,42.805,6.029,CST-1368DR,5637,7886,15041,0.150,551
2021-01-06T11:13:01,42.805,6.029,CST-1368DR,5637,7886,15041,0.150,551
2021-01-06T11:16:03,42.805,6.029,CST-1368DR,5637,7886,15042,0.150,551
2021-01-06T11:19:04,42.805,6.029,CST-1368DR,5637,7886,15043,0.150,551
2021-01-06T11:22:06,42.805,6.029,CST-1368DR,5637,7886,15041,0.150,551
2021-01-06T11:25:07,42.805,6.029,CST-1368DR,5637,7886,15042,0.150,551
2021-01-06T11:28:09,42.805,6.029,CST-1368DR,5637,7886,15043,0.150,551
2021-01-06T11:31:11,42.805,6.029,CST-1368DR,5637,7886,15043,0.150,551
2021-01-06T11:34:12,42.805,6.029,CST-1368DR,5637,7887,15044,0.149,551
2021-01-06T11:37:14,42.805,6.029,CST-1368DR,5637,7886,15043,0.150,551
2021-01-06T11:40:15,42.805,6.029,CST-1368DR,5637,7886,15042,0.150,551
2021-01-06T11:43:17,42.805,6.029,CST-1368DR,5637,7886,15042,0.150,551
2021-01-06T11:46:19,42.805,6.029,CST-1368DR,5637,7886,15041,0.150,551
2021-01-06T11:49:20,42.805,6.029,CST-1368DR,5637,7885,15040,0.150,551
2021-01-06T11:52:22,42.805,6.029,CST-1368DR,5637,7884,15039,0.151,551
2021-01-06T11:55:23,42.805,6.029,CST-1368DR,5637,7887,15043,0.150,551
2021-01-06T11:58:25,42.805,6.029,CST-1368DR,5637,7886,15042,0.150,551
2021-01-06T12:01:26,42.805,6.029,CST-1368DR,5637,7886,15041,0.150,551
2021-01-06T12:04:28,42.805,6.029,CST-1368DR,5637,7886,15042,0.150,551
2021-01-06T12:07:30,42.805,6.029,CST-1368DR,5637,7884,15039,0.151,551
2021-01-06T12:10:31,42.805,6.029,CST-1368DR,5637,7886,15042,0.150,551
2021-01-06T12:13:33,42.805,6.029,CST-1368DR,5637,7885,15040,0.150,551
2021-01-06T12:16:34,42.805,6.029,CST-1368DR,5637,7885,15040,0.150,551
2021-01-06T12:19:36,42.805,6.029,CST-1368DR,5637,7886,15041,0.150,551
2021-01-06T12:22:38,42.805,6.029,CST-1368DR,5637,7884,15038,0.151,551
2021-01-06T12:25:39,42.805,6.029,CST-1368DR,5637,7884,15038,0.151,551
2021-01-06T12:28:41,42.805,6.029,CST-1368DR,5637,7886,15041,0.150,551
2021-01-06T12:31:42,42.805,6.029,CST-1368DR,5637,7883,15037,0.151,551
2021-01-06T12:34:44,42.805,6.029,CST-1368DR,5637,7884,15038,0.151,551
2021-01-06T12:37:45,42.805,6.029,CST-1368DR,5637,7884,15039,0.151,551
2021-01-06T12:40:47,42.805,6.029,CST-1368DR,5637,7885,15040,0.150,551
2021-01-06T12:43:49,42.805,6.029,CST-1368DR,5637,7885,15040,0.150,551
2021-01-06T12:46:50,42.805,6.029,CST-1368DR,5637,7885,15040,0.150,550
2021-01-06T12:49:52,42.805,6.029,CST-1368DR,5637,7885,15040,0.150,551
2021-01-06T12:52:53,42.805,6.029,CST-1368DR,5637,7885,15040,0.150,551
2021-01-06T12:55:55,42.805,6.029,CST-1368DR,5637,7885,15041,0.150,551
2021-01-06T12:58:56,42.805,6.029,CST-1368DR,5637,7885,15040,0.150,551
2021-01-06T13:01:58,42.805,6.029,CST-1368DR,5637,7885,15039,0.151,551
2021-01-06T13:05:00,42.805,6.029,CST-1368DR,5637,7885,15039,0.151,551
2021-01-06T13:08:01,42.805,6.029,CST-1368DR,5637,7884,15038,0.151,551
2021-01-06T13:11:03,42.805,6.029,CST-1368DR,5637,7885,15040,0.150,551
2021-01-06T13:14:04,42.805,6.029,CST-1368DR,5637,7885,15039,0.151,551
2021-01-06T13:17:06,42.805,6.029,CST-1368DR,5637,7885,15039,0.151,551
2021-01-06T13:20:08,42.805,6.029,CST-1368DR,5637,7884,15039,0.151,551
2021-01-06T13:23:09,42.805,6.029,CST-1368DR,5637,7884,15038,0.151,551
2021-01-06T13:26:11,42.805,6.029,CST-1368DR,5637,7884,15038,0.151,551
2021-01-06T13:29:12,42.805,6.029,CST-1368DR,5637,7884,15038,0.151,551
2021-01-06T13:32:14,42.805,6.029,CST-1368DR,5637,7884,15038,0.151,551
2021-01-06T13:35:15,42.805,6.029,CST-1368DR,5637,7884,15038,0.151,551
2021-01-06T13:38:17,42.805,6.029,CST-1368DR,5637,7885,15039,0.151,551
2021-01-06T13:41:19,42.805,6.029,CST-1368DR,5637,7885,15040,0.150,551
2021-01-06T13:44:20,42.805,6.029,CST-1368DR,5637,7884,15038,0.151,551
2021-01-06T13:47:22,42.805,6.029,CST-1368DR,5637,7885,15039,0.151,551
2021-01-06T13:50:23,42.805,6.029,CST-1368DR,5637,7879,15029,0.153,551
2021-01-06T13:53:25,42.805,6.029,CST-1368DR,5637,7884,15038,0.151,551
2021-01-06T13:56:27,42.805,6.029,CST-1368DR,5637,7883,15037,0.151,551
2021-01-06T13:59:28,42.805,6.029,CST-1368DR,5637,7885,15039,0.151,551
2021-01-06T14:02:30,42.805,6.029,CST-1368DR,5637,7883,15037,0.151,551
2021-01-06T14:05:31,42.805,6.029,CST-1368DR,5637,7884,15038,0.151,551
2021-01-06T14:08:33,42.805,6.029,CST-1368DR,5637,7885,15039,0.151,551
2021-01-06T14:11:34,42.805,6.029,CST-1368DR,5637,7884,15039,0.151,551
2021-01-06T14:14:36,42.805,6.029,CST-1368DR,5637,7884,15038,0.151,551
2021-01-06T14:17:38,42.805,6.029,CST-1368DR,5637,7884,15039,0.151,551
2021-01-06T14:20:39,42.805,6.029,CST-1368DR,5637,7884,15038,0.151,551
2021-01-06T14:23:41,42.805,6.029,CST-1368DR,5637,7884,15039,0.151,551
2021-01-06T14:26:42,42.805,6.029,CST-1368DR,5637,7884,15038,0.151,551
2021-01-06T14:29:44,42.805,6.029,CST-1368DR,5637,7883,15036,0.151,551
2021-01-06T14:32:45,42.805,6.029,CST-1368DR,5637,7885,15040,0.150,551
2021-01-06T14:35:47,42.805,6.029,CST-1368DR,5637,7884,15038,0.151,551
2021-01-06T14:38:49,42.805,6.029,CST-1368DR,5637,7884,15038,0.151,551
2021-01-06T14:41:50,42.805,6.029,CST-1368DR,5637,7884,15038,0.151,551
2021-01-06T14:44:52,42.805,6.029,CST-1368DR,5637,7884,15039,0.151,551
2021-01-06T14:47:53,42.805,6.029,CST-1368DR,5637,7883,15037,0.151,551
2021-01-06T14:50:55,42.805,6.029,CST-1368DR,5637,7882,15034,0.152,551
2021-01-06T14:53:57,42.805,6.029,CST-1368DR,5637,7883,15037,0.151,551
2021-01-06T14:56:58,42.805,6.029,CST-1368DR,5637,7885,15039,0.151,551
2021-01-06T15:00:00,42.805,6.029,CST-1368DR,5637,7885,15039,0.151,551
2021-01-06T15:03:01,42.805,6.029,CST-1368DR,5637,7885,15040,0.150,551
2021-01-06T15:06:03,42.805,6.029,CST-1368DR,5637,7884,15039,0.151,551
2021-01-06T15:09:04,42.805,6.029,CST-1368DR,5637,7883,15037,0.151,551
2021-01-06T15:12:06,42.805,6.029,CST-1368DR,5637,7884,15038,0.151,551
2021-01-06T15:15:08,42.805,6.029,CST-1368DR,5637,7885,15040,0.150,551
2021-01-06T15:18:09,42.805,6.029,CST-1368DR,5636,7885,15043,0.150,551
2021-01-06T15:21:11,42.805,6.029,CST-1368DR,5637,7884,15038,0.151,551
2021-01-06T15:24:12,42.805,6.029,CST-1368DR,5637,7884,15039,0.151,551
2021-01-06T15:27:14,42.805,6.029,CST-1368DR,5637,7884,15038,0.151,551
2021-01-06T15:30:16,42.805,6.029,CST-1368DR,5637,7884,15039,0.151,551
2021-01-06T15:33:17,42.805,6.029,CST-1368DR,5637,7884,15038,0.151,551
2021-01-06T15:36:19,42.805,6.029,CST-1368DR,5637,7885,15039,0.151,551
2021-01-06T15:39:20,42.805,6.029,CST-1368DR,5637,7884,15038,0.151,551
2021-01-06T15:42:22,42.805,6.029,CST-1368DR,5637,7884,15038,0.151,551
2021-01-06T15:45:23,42.805,6.029,CST-1368DR,5637,7885,15039,0.151,551
2021-01-06T15:48:25,42.805,6.029,CST-1368DR,5637,7885,15040,0.150,551
2021-01-06T15:51:27,42.805,6.029,CST-1368DR,5636,7884,15041,0.150,551
2021-01-06T15:54:28,42.805,6.029,CST-1368DR,5636,7884,15041,0.150,551
2021-01-06T15:57:30,42.805,6.029,CST-1368DR,5636,7884,15041,0.150,551
2021-01-06T16:00:31,42.805,6.029,CST-1368DR,5636,7882,15036,0.151,551
2021-01-06T16:03:33,42.805,6.029,CST-1368DR,5636,7884,15040,0.150,551
2021-01-06T16:06:34,42.805,6.029,CST-1368DR,5636,7884,15040,0.150,551
2021-01-06T16:09:36,42.805,6.029,CST-1368DR,5636,7884,15041,0.150,551
2021-01-06T16:12:38,42.805,6.029,CST-1368DR,5636,7883,15039,0.151,551
2021-01-06T16:15:39,42.805,6.029,CST-1368DR,5637,7883,15036,0.151,551
2021-01-06T16:18:41,42.805,6.029,CST-1368DR,5636,7882,15038,0.151,551
2021-01-06T16:21:42,42.805,6.029,CST-1368DR,5636,7881,15035,0.152,551
2021-01-06T16:24:44,42.805,6.029,CST-1368DR,5636,7884,15040,0.150,551
2021-01-06T16:27:46,42.805,6.029,CST-1368DR,5636,7882,15038,0.151,551
2021-01-06T16:30:47,42.805,6.029,CST-1368DR,5636,7882,15037,0.151,551
2021-01-06T16:33:49,42.805,6.029,CST-1368DR,5636,7882,15036,0.151,551
2021-01-06T16:36:50,42.805,6.029,CST-1368DR,5636,7884,15040,0.150,551
2021-01-06T16:39:52,42.805,6.029,CST-1368DR,5636,7883,15039,0.151,551
2021-01-06T16:42:53,42.805,6.029,CST-1368DR,5636,7883,15038,0.151,551
2021-01-06T16:45:55,42.805,6.029,CST-1368DR,5636,7882,15037,0.151,551
2021-01-06T16:48:57,42.805,6.029,CST-1368DR,5636,7883,15039,0.151,551
2021-01-06T16:51:58,42.805,6.029,CST-1368DR,5636,7883,15039,0.151,551